Clemson, SC

10:23 AM EST on February 09, 2016 (GMT -0500)
Oconee County Regional

Weather History for KCEU - August, 2013

Change the Weather History Date:

Thursday, August 29, 2013

  Actual Average Record
Temperature  
Mean Temperature 82 °F -  
Max Temperature 91 °F 87 °F - (-1)
Min Temperature 73 °F 65 °F - (-1)
Cooling Degree Days 17    
Growing Degree Days 32 (Base 50)    
Moisture  
Dew Point 70 °F    
Average Humidity 68    
Maximum Humidity 84    
Minimum Humidity 45    
Precipitation  
Precipitation 0.00 in - - ()
Sea Level Pressure  
Sea Level Pressure 29.94 in    
Wind  
Wind Speed 2 mph (WSW)    
Max Wind Speed 8 mph    
Max Gust Speed -    
Visibility 9 miles    
Events      
Averages and records for this station are not official NWS values.
T = Trace of Precipitation, MM = Missing Value Source: NWS Daily Summary

Daily Weather History Graph

Daily Weather History Graph

Search for Another Location

Airport or City:

Trip Planner

Search our weather history database for the weather conditions in past years. The results will help you decide how hot, cold, wet, or windy it might be!

Date:

Astronomy

Aug. 29, 2013 Rise Set
Actual Time 7:02 AM EDT 8:01 PM EDT
Civil Twilight 6:36 AM EDT 8:27 PM EDT
Nautical Twilight 6:06 AM EDT 8:58 PM EDT
Astronomical Twilight 5:34 AM EDT 9:29 PM EDT
Moon 1:00 AM EDT (8/29) 3:22 PM EDT (8/29)
Length of Visible Light 13h 50m
Length of Day
12h 59m
Last Quarter, 38% of the Moon is Illuminated
Aug 29
Last Quarter
Sep 5
New
Sep 12
First Quarter
Sep 19
Full
Sep 26
Last Quarter

Hourly Weather History & Observations

Time (EDT) Temp. Heat Index Dew Point Humidity Pressure Visibility Wind Dir Wind Speed Gust Speed Precip Events Conditions
12:54 AM 75.9 °F - 69.1 °F 79% 29.96 in 8.0 mi Calm Calm - N/A   Clear
1:54 AM 75.0 °F - 68.0 °F 79% 29.94 in 9.0 mi West 5.8 mph - N/A   Clear
2:54 AM 75.9 °F - 66.9 °F 74% 29.94 in 10.0 mi West 8.1 mph - N/A   Clear
3:54 AM 75.9 °F - 66.0 °F 71% 29.94 in 10.0 mi West 4.6 mph - N/A   Clear
4:54 AM 73.0 °F - 66.9 °F 81% 29.94 in 8.0 mi Calm Calm - N/A   Clear
5:54 AM 73.0 °F - 66.9 °F 81% 29.94 in 7.0 mi Calm Calm - N/A   Clear
6:54 AM 75.9 °F - 66.0 °F 71% 29.95 in 10.0 mi Calm Calm - N/A   Clear
7:54 AM 73.9 °F - 66.0 °F 76% 29.96 in 8.0 mi WSW 6.9 mph - N/A   Clear
8:54 AM 78.1 °F - 68.0 °F 71% 29.96 in 9.0 mi West 4.6 mph - N/A   Clear
9:54 AM 81.0 °F 84.9 °F 71.1 °F 72% 29.97 in 9.0 mi Calm Calm - N/A   Mostly Cloudy
10:54 AM 81.0 °F 84.9 °F 71.1 °F 72% 29.99 in 9.0 mi North 3.5 mph - N/A   Mostly Cloudy
11:54 AM 84.0 °F 88.4 °F 70.0 °F 63% 29.98 in 10.0 mi Calm Calm - N/A   Overcast
12:54 PM 87.1 °F 91.3 °F 69.1 °F 55% 29.97 in 10.0 mi East 3.5 mph - N/A   Partly Cloudy
1:54 PM 89.1 °F 93.7 °F 69.1 °F 52% 29.96 in 10.0 mi Variable 3.5 mph - N/A   Clear
2:54 PM 91.0 °F 94.3 °F 66.9 °F 45% 29.94 in 10.0 mi Variable 3.5 mph - N/A   Partly Cloudy
3:54 PM 91.0 °F 96.6 °F 70.0 °F 50% 29.91 in 10.0 mi SSE 3.5 mph - N/A   Clear
4:54 PM 90.0 °F 92.8 °F 66.9 °F 46% 29.91 in 10.0 mi SE 4.6 mph - N/A   Clear
5:54 PM 89.1 °F 95.0 °F 71.1 °F 55% 29.91 in 10.0 mi Calm Calm - N/A   Partly Cloudy
6:54 PM 88.0 °F 95.6 °F 73.0 °F 61% 29.90 in 10.0 mi Calm Calm - N/A   Mostly Cloudy
7:54 PM 84.0 °F 89.6 °F 72.0 °F 67% 29.92 in 10.0 mi Calm Calm - N/A   Clear
8:54 PM 82.9 °F 89.4 °F 73.9 °F 74% 29.93 in 10.0 mi Calm Calm - N/A   Clear
9:54 PM 81.0 °F 86.7 °F 75.0 °F 82% 29.95 in 7.0 mi Calm Calm - N/A   Clear
10:54 PM 81.0 °F 86.7 °F 75.0 °F 82% 29.95 in 7.0 mi Calm Calm - N/A   Clear
11:54 PM 79.0 °F - 73.9 °F 84% 29.95 in 5.0 mi Calm Calm - N/A   Haze